• In France
  • List of Countries
  • For 7 days
  • Water Temperature
  • Satellite Maps
  • Weather Map
  • Weather Widgets
  • user-avatar
    Login

    Hourly Weather Perth

    Today, 16 October, Tuesday

    Time Temperature Precipitation Wind Pressure Humidity
    00:00 +13°C° 0 mm 2 mps 765 mmHg 79%
    01:00 +13°C° 0 mm 2 mps 765 mmHg 80%
    02:00 +12°C° 0 mm 2 mps 765 mmHg 82%
    03:00 +12°C° 0 mm 2 mps 765 mmHg 82%
    04:00 +12°C° 0 mm 2 mps 764 mmHg 82%
    05:00 +12°C° 0 mm 2 mps 764 mmHg 82%
    06:00 +13°C° 0 mm 2 mps 764 mmHg 76%
    07:00 +15°C° 0 mm 2 mps 764 mmHg 70%
    08:00 +18°C° 0 mm 2 mps 764 mmHg 65%
    09:00 +20°C° 0 mm 2 mps 764 mmHg 57%
    10:00 +23°C° 0 mm 2 mps 764 mmHg 48%
    11:00 +26°C° 0 mm 2 mps 763 mmHg 40%
    12:00 +27°C° 0 mm 2 mps 763 mmHg 38%
    13:00 +28°C° 0 mm 2 mps 762 mmHg 36%
    14:00 +29°C° 0 mm 2 mps 761 mmHg 33%
    15:00 +28°C° 0 mm 3 mps 761 mmHg 38%
    16:00 +27°C° 0 mm 3 mps 761 mmHg 42%
    17:00 +27°C° 0 mm 3 mps 761 mmHg 46%
    18:00 +24°C° 0 mm 3 mps 761 mmHg 51%
    19:00 +21°C° 0 mm 3 mps 761 mmHg 57%
    20:00 +19°C° 0 mm 3 mps 761 mmHg 62%
    21:00 +19°C° 0 mm 3 mps 760 mmHg 62%
    22:00 +18°C° 0 mm 3 mps 760 mmHg 61%
    23:00 +18°C° 0 mm 3 mps 760 mmHg 60%

    Tomorrow, 17 October, Wednesday

    Time Temperature Precipitation Wind Pressure Humidity
    00:00 +18°C° 0 mm 3 mps 759 mmHg 56%
    01:00 +18°C° 0 mm 3 mps 759 mmHg 53%
    02:00 +18°C° 0 mm 3 mps 758 mmHg 49%
    03:00 +18°C° 0 mm 3 mps 758 mmHg 47%
    04:00 +18°C° 0 mm 3 mps 757 mmHg 45%
    05:00 +18°C° 0 mm 3 mps 757 mmHg 43%
    06:00 +20°C° 0 mm 4 mps 757 mmHg 41%
    07:00 +22°C° 0 mm 4 mps 756 mmHg 39%
    08:00 +25°C° 0 mm 5 mps 756 mmHg 38%
    09:00 +27°C° 0 mm 5 mps 756 mmHg 34%
    10:00 +30°C° 0 mm 6 mps 755 mmHg 29%
    11:00 +33°C° 0 mm 6 mps 755 mmHg 25%
    12:00 +33°C° 0 mm 6 mps 754 mmHg 26%
    13:00 +33°C° 0 mm 6 mps 753 mmHg 27%
    14:00 +33°C° 0 mm 6 mps 752 mmHg 28%
    15:00 +30°C° 0 mm 6 mps 752 mmHg 36%
    16:00 +27°C° 0 mm 5 mps 751 mmHg 44%
    17:00 +25°C° 0 mm 5 mps 751 mmHg 52%
    18:00 +22°C° 0 mm 5 mps 752 mmHg 59%
    19:00 +20°C° 0 mm 5 mps 752 mmHg 66%
    20:00 +17°C° 0 mm 5 mps 752 mmHg 73%
    21:00 +17°C° 0 mm 6 mps 752 mmHg 75%
    22:00 +17°C° 0 mm 6 mps 752 mmHg 78%
    23:00 +16°C° 0 mm 6 mps 752 mmHg 81%

    Day after tomorrow, 18 October, Thursday

    Time Temperature Precipitation Wind Pressure Humidity
    00:00 +16°C° 0.1 mm 6 mps 752 mmHg 83%
    01:00 +16°C° 0.1 mm 7 mps 751 mmHg 85%
    02:00 +16°C° 0.1 mm 7 mps 751 mmHg 87%
    03:00 +16°C° 0.5 mm 7 mps 751 mmHg 85%
    04:00 +15°C° 0.5 mm 7 mps 751 mmHg 83%
    05:00 +15°C° 0.5 mm 6 mps 751 mmHg 82%
    06:00 +15°C° 0.3 mm 7 mps 752 mmHg 78%
    07:00 +15°C° 0.3 mm 7 mps 752 mmHg 74%
    08:00 +15°C° 0.3 mm 8 mps 752 mmHg 70%
    09:00 +16°C° 0.4 mm 8 mps 753 mmHg 66%
    10:00 +16°C° 0.4 mm 9 mps 753 mmHg 62%
    11:00 +16°C° 0.4 mm 9 mps 753 mmHg 58%
    12:00 +16°C° 0.7 mm 9 mps 753 mmHg 60%
    13:00 +16°C° 0.7 mm 9 mps 753 mmHg 61%
    14:00 +16°C° 0.7 mm 10 mps 754 mmHg 62%
    15:00 +15°C° 0.4 mm 9 mps 754 mmHg 63%
    16:00 +15°C° 0.4 mm 8 mps 755 mmHg 63%
    17:00 +13°C° 0.4 mm 8 mps 756 mmHg 64%
    18:00 +12°C° 0.1 mm 7 mps 757 mmHg 68%
    19:00 +11°C° 0.1 mm 6 mps 758 mmHg 71%
    20:00 +10°C° 0.1 mm 5 mps 759 mmHg 75%
    21:00 +10°C° 0.1 mm 5 mps 760 mmHg 76%
    22:00 +10°C° 0.1 mm 5 mps 760 mmHg 76%
    23:00 +10°C° 0.1 mm 5 mps 761 mmHg 77%

    19 October, Friday

    Time Temperature Precipitation Wind Pressure Humidity
    00:00 +9°C° 0.1 mm 5 mps 761 mmHg 77%
    01:00 +10°C° 0.1 mm 4 mps 761 mmHg 78%
    02:00 +10°C° 0.1 mm 4 mps 761 mmHg 78%
    03:00 +10°C° 0.1 mm 4 mps 761 mmHg 78%
    04:00 +10°C° 0.1 mm 4 mps 762 mmHg 78%
    05:00 +10°C° 0.1 mm 4 mps 762 mmHg 79%
    06:00 +11°C° 0.1 mm 4 mps 763 mmHg 74%
    07:00 +13°C° 0.1 mm 4 mps 763 mmHg 69%
    08:00 +14°C° 0.1 mm 5 mps 764 mmHg 64%
    09:00 +15°C° 0 mm 5 mps 764 mmHg 59%
    10:00 +17°C° 0 mm 4 mps 764 mmHg 53%
    11:00 +18°C° 0 mm 4 mps 764 mmHg 48%
    12:00 +19°C° 0 mm 4 mps 764 mmHg 48%
    13:00 +19°C° 0 mm 4 mps 764 mmHg 48%
    14:00 +19°C° 0 mm 4 mps 764 mmHg 48%
    15:00 +19°C° 0 mm 4 mps 764 mmHg 51%
    16:00 +18°C° 0 mm 4 mps 764 mmHg 54%
    17:00 +18°C° 0 mm 4 mps 764 mmHg 57%
    18:00 +17°C° 0 mm 3 mps 765 mmHg 62%
    19:00 +14°C° 0 mm 3 mps 765 mmHg 68%
    20:00 +14°C° 0 mm 2 mps 766 mmHg 73%
    21:00 +13°C° 0 mm 2 mps 766 mmHg 75%
    22:00 +13°C° 0 mm 1 mps 766 mmHg 76%
    23:00 +13°C° 0 mm 1 mps 766 mmHg 78%

    20 October, Saturday

    Time Temperature Precipitation Wind Pressure Humidity
    00:00 +12°C° 0 mm 1 mps 765 mmHg 79%
    01:00 +12°C° 0 mm 1 mps 765 mmHg 80%
    02:00 +12°C° 0 mm 1 mps 764 mmHg 81%
    03:00 +12°C° 0 mm 2 mps 764 mmHg 81%
    04:00 +12°C° 0 mm 2 mps 764 mmHg 82%
    05:00 +12°C° 0 mm 2 mps 764 mmHg 83%
    06:00 +12°C° 0 mm 3 mps 765 mmHg 77%
    07:00 +14°C° 0 mm 3 mps 765 mmHg 71%
    08:00 +17°C° 0 mm 3 mps 765 mmHg 66%
    09:00 +17°C° 0 mm 4 mps 765 mmHg 64%
    10:00 +18°C° 0 mm 4 mps 764 mmHg 62%
    11:00 +19°C° 0 mm 4 mps 764 mmHg 61%
    12:00 +19°C° 0 mm 5 mps 763 mmHg 60%
    13:00 +19°C° 0 mm 5 mps 763 mmHg 60%
    14:00 +19°C° 0 mm 5 mps 762 mmHg 60%
    15:00 +19°C° 0 mm 5 mps 762 mmHg 62%
    16:00 +19°C° 0 mm 5 mps 762 mmHg 64%
    17:00 +17°C° 0 mm 5 mps 762 mmHg 67%
    18:00 +16°C° 0 mm 5 mps 762 mmHg 72%
    19:00 +15°C° 0 mm 5 mps 762 mmHg 76%
    20:00 +14°C° 0 mm 4 mps 762 mmHg 81%
    21:00 +14°C° 0 mm 4 mps 762 mmHg 81%
    22:00 +14°C° 0 mm 5 mps 762 mmHg 81%
    23:00 +14°C° 0 mm 5 mps 762 mmHg 81%

    21 October, Sunday

    Time Temperature Precipitation Wind Pressure Humidity
    00:00 +14°C° 0 mm 5 mps 761 mmHg 80%
    01:00 +14°C° 0 mm 5 mps 761 mmHg 79%
    02:00 +14°C° 0 mm 5 mps 760 mmHg 79%
    03:00 +14°C° 0 mm 5 mps 760 mmHg 79%
    04:00 +14°C° 0 mm 5 mps 760 mmHg 80%
    05:00 +14°C° 0 mm 5 mps 760 mmHg 80%
    06:00 +15°C° 0.1 mm 5 mps 761 mmHg 80%
    07:00 +15°C° 0.1 mm 5 mps 761 mmHg 80%
    08:00 +16°C° 0.1 mm 5 mps 761 mmHg 80%
    09:00 +16°C° 0.4 mm 5 mps 761 mmHg 80%
    10:00 +16°C° 0.4 mm 5 mps 761 mmHg 81%
    11:00 +16°C° 0.4 mm 5 mps 761 mmHg 82%
    12:00 +17°C° 0.2 mm 6 mps 761 mmHg 78%
    13:00 +17°C° 0.2 mm 6 mps 761 mmHg 75%
    14:00 +17°C° 0.2 mm 6 mps 761 mmHg 71%
    15:00 +17°C° 0 mm 6 mps 761 mmHg 68%
    16:00 +16°C° 0 mm 6 mps 762 mmHg 65%
    17:00 +16°C° 0 mm 7 mps 762 mmHg 62%
    18:00 +14°C° 0 mm 6 mps 763 mmHg 65%
    19:00 +13°C° 0 mm 5 mps 764 mmHg 69%
    20:00 +12°C° 0 mm 5 mps 764 mmHg 72%
    21:00 +11°C° 0 mm 4 mps 765 mmHg 73%
    22:00 +11°C° 0 mm 4 mps 765 mmHg 75%
    23:00 +10°C° 0 mm 4 mps 766 mmHg 76%
    Show more